Weather History for KBHB - August, 2013

Change the Weather History Date:

Saturday, August 24, 2013

  Actual Average Record
Temperature  
Mean Temperature 62 °F -  
Max Temperature 75 °F 75 °F 89 °F (1969)
Min Temperature 50 °F 54 °F 44 °F (1959)
Degree Days  
Heating Degree Days 2    
Growing Degree Days 12 (Base 50)    
Moisture  
Dew Point 49 °F    
Average Humidity 67    
Maximum Humidity 94    
Minimum Humidity 31    
Precipitation  
Precipitation 0.00 in - - ()
Sea Level Pressure  
Sea Level Pressure 30.23 in    
Wind  
Wind Speed 4 mph (North)    
Max Wind Speed 13 mph    
Max Gust Speed 17 mph    
Visibility 10 miles    
Events      
Averages and records for this station are not official NWS values.
T = Trace of Precipitation, MM = Missing Value Source: NWS Daily Summary

Daily Weather History Graph

Daily Weather History Graph

Search for Another Location

Airport or City:

Trip Planner

Search our weather history database for the weather conditions in past years. The results will help you decide how hot, cold, wet, or windy it might be!

Date:

Astronomy

Aug. 24, 2013 Rise Set
Actual Time 5:47 AM EDT 7:23 PM EDT
Civil Twilight 5:16 AM EDT 7:54 PM EDT
Nautical Twilight 4:39 AM EDT 8:31 PM EDT
Astronomical Twilight 3:59 AM EDT 9:10 PM EDT
Moon 9:02 PM EDT (8/24) 9:54 AM EDT (8/24)
Length of Visible Light 14h 37m
Length of Day
13h 36m
Waning Gibbous, 84% of the Moon is Illuminated
Aug 24
Waning Gibbous
Aug 28
Last Quarter
Sep 5
New
Sep 12
First Quarter
Sep 19
Full

Hourly Weather History & Observations

Time (EDT) Temp. Dew Point Humidity Pressure Visibility Wind Dir Wind Speed Gust Speed Precip Events Conditions
12:15 AM 55.4 °F 51.8 °F 88% 30.14 in 10.0 mi North 3.5 mph - N/A   Clear
12:35 AM 53.6 °F 51.8 °F 94% 30.14 in 10.0 mi North 4.6 mph - N/A   Clear
12:55 AM 55.4 °F 51.8 °F 88% 30.14 in 10.0 mi North 3.5 mph - N/A   Clear
1:15 AM 53.6 °F 50.0 °F 88% 30.14 in 10.0 mi NNW 3.5 mph - N/A   Clear
1:35 AM 53.6 °F 50.0 °F 88% 30.15 in 10.0 mi North 4.6 mph - N/A   Clear
1:55 AM 53.6 °F 50.0 °F 88% 30.15 in 10.0 mi NNW 5.8 mph - N/A   Clear
2:15 AM 53.6 °F 50.0 °F 88% 30.15 in 10.0 mi Calm Calm - N/A   Clear
2:35 AM 51.8 °F 50.0 °F 94% 30.16 in 10.0 mi NNW 3.5 mph - N/A   Clear
2:55 AM 53.6 °F 50.0 °F 88% 30.16 in 10.0 mi NNW 3.5 mph - N/A   Clear
3:15 AM 51.8 °F 50.0 °F 94% 30.16 in 10.0 mi Calm Calm - N/A   Clear
3:35 AM 51.8 °F 50.0 °F 94% 30.17 in 10.0 mi NNW 3.5 mph - N/A   Clear
3:55 AM 50.0 °F 48.2 °F 94% 30.17 in 10.0 mi Calm Calm - N/A   Clear
4:15 AM 51.8 °F 48.2 °F 88% 30.18 in 10.0 mi North 3.5 mph - N/A   Clear
4:35 AM 51.8 °F 48.2 °F 88% 30.19 in 10.0 mi NNW 3.5 mph - N/A   Clear
4:55 AM 50.0 °F 48.2 °F 94% 30.20 in 10.0 mi NNW 3.5 mph - N/A   Clear
5:15 AM 51.8 °F 48.2 °F 88% 30.20 in 10.0 mi NNW 3.5 mph - N/A   Clear
5:35 AM 50.0 °F 48.2 °F 94% 30.21 in 10.0 mi NNW 4.6 mph - N/A   Clear
5:55 AM 51.8 °F 48.2 °F 88% 30.22 in 10.0 mi NNW 3.5 mph - N/A   Clear
6:15 AM 50.0 °F 48.2 °F 94% 30.22 in 10.0 mi NNW 4.6 mph - N/A   Clear
6:35 AM 51.8 °F 48.2 °F 88% 30.23 in 10.0 mi Calm Calm - N/A   Clear
6:55 AM 53.6 °F 50.0 °F 88% 30.24 in 10.0 mi NNW 3.5 mph - N/A   Clear
7:15 AM 55.4 °F 51.8 °F 88% 30.25 in 10.0 mi Calm Calm - N/A   Clear
7:35 AM 57.2 °F 51.8 °F 82% 30.25 in 10.0 mi North 3.5 mph - N/A   Clear
7:55 AM 57.2 °F 53.6 °F 88% 30.26 in 10.0 mi NNE 4.6 mph - N/A   Clear
8:15 AM 60.8 °F 53.6 °F 77% 30.26 in 10.0 mi North 5.8 mph - N/A   Clear
8:35 AM 60.8 °F 53.6 °F 77% 30.26 in 10.0 mi NNE 5.8 mph - N/A   Clear
8:55 AM 64.4 °F 51.8 °F 64% 30.27 in 10.0 mi North 5.8 mph - N/A   Clear
9:15 AM 64.4 °F 51.8 °F 64% 30.27 in 10.0 mi NNE 9.2 mph - N/A   Clear
9:35 AM 66.2 °F 51.8 °F 60% 30.27 in 10.0 mi North 5.8 mph - N/A   Clear
9:55 AM 66.2 °F 48.2 °F 52% 30.28 in 10.0 mi North 4.6 mph - N/A   Clear
10:15 AM 68.0 °F 48.2 °F 49% 30.28 in 10.0 mi North 6.9 mph - N/A   Clear
10:35 AM 69.8 °F 48.2 °F 46% 30.27 in 10.0 mi North 6.9 mph - N/A   Clear
10:55 AM 69.8 °F 46.4 °F 43% 30.27 in 10.0 mi North 9.2 mph 17.3 mph N/A   Clear
11:15 AM 69.8 °F 44.6 °F 40% 30.27 in 10.0 mi North 6.9 mph - N/A   Clear
11:35 AM 71.6 °F 42.8 °F 35% 30.26 in 10.0 mi NNE 10.4 mph - N/A   Clear
11:55 AM 71.6 °F 42.8 °F 35% 30.26 in 10.0 mi North 11.5 mph - N/A   Clear
12:15 PM 71.6 °F 42.8 °F 35% 30.26 in 10.0 mi North 9.2 mph - N/A   Clear
12:35 PM 71.6 °F 44.6 °F 38% 30.25 in 10.0 mi North 12.7 mph - N/A   Clear
12:55 PM 71.6 °F 42.8 °F 35% 30.25 in 10.0 mi North 11.5 mph 16.1 mph N/A   Clear
1:15 PM 71.6 °F 44.6 °F 38% 30.25 in 10.0 mi North 8.1 mph - N/A   Clear
1:35 PM 73.4 °F 44.6 °F 36% 30.25 in 10.0 mi NNW 5.8 mph - N/A   Clear
1:55 PM 73.4 °F 44.6 °F 36% 30.25 in 10.0 mi North 6.9 mph - N/A   Clear
2:15 PM 73.4 °F 44.6 °F 36% 30.25 in 10.0 mi NNW 5.8 mph - N/A   Clear
2:35 PM 73.4 °F 44.6 °F 36% 30.24 in 10.0 mi North 6.9 mph 16.1 mph N/A   Clear
2:55 PM 73.4 °F 44.6 °F 36% 30.24 in 10.0 mi NW 6.9 mph - N/A   Clear
3:15 PM 75.2 °F 42.8 °F 31% 30.24 in 10.0 mi NNW 6.9 mph - N/A   Clear
3:35 PM 75.2 °F 44.6 °F 34% 30.24 in 10.0 mi NW 6.9 mph - N/A   Clear
3:55 PM 75.2 °F 44.6 °F 34% 30.24 in 10.0 mi North 9.2 mph - N/A   Clear
4:15 PM 75.2 °F 44.6 °F 34% 30.23 in 10.0 mi NNW 9.2 mph - N/A   Clear
4:35 PM 75.2 °F 44.6 °F 34% 30.23 in 10.0 mi North 5.8 mph - N/A   Clear
4:55 PM 75.2 °F 44.6 °F 34% 30.24 in 10.0 mi North 5.8 mph - N/A   Clear
5:15 PM 75.2 °F 44.6 °F 34% 30.24 in 10.0 mi North 5.8 mph - N/A   Clear
5:55 PM 73.4 °F 44.6 °F 36% 30.23 in 10.0 mi NNW 3.5 mph - N/A   Clear
6:15 PM 73.4 °F 44.6 °F 36% 30.24 in 10.0 mi Calm Calm - N/A   Clear
6:35 PM 71.6 °F 48.2 °F 43% 30.24 in 10.0 mi Calm Calm - N/A   Clear
6:55 PM 68.0 °F 51.8 °F 56% 30.24 in 10.0 mi Calm Calm - N/A   Clear
7:15 PM 64.4 °F 51.8 °F 64% 30.24 in 10.0 mi Calm Calm - N/A   Clear
7:35 PM 64.4 °F 51.8 °F 64% 30.25 in 10.0 mi Calm Calm - N/A   Clear
7:55 PM 62.6 °F 51.8 °F 68% 30.25 in 10.0 mi Calm Calm - N/A   Clear
8:15 PM 60.8 °F 51.8 °F 72% 30.26 in 10.0 mi Calm Calm - N/A   Clear
8:35 PM 60.8 °F 51.8 °F 72% 30.27 in 10.0 mi SSW 5.8 mph - N/A   Clear
8:55 PM 60.8 °F 51.8 °F 72% 30.27 in 10.0 mi Calm Calm - N/A   Clear
9:15 PM 59.0 °F 51.8 °F 77% 30.28 in 10.0 mi Calm Calm - N/A   Clear
9:35 PM 57.2 °F 53.6 °F 88% 30.28 in 10.0 mi Calm Calm - N/A   Clear
9:55 PM 55.4 °F 53.6 °F 94% 30.29 in 10.0 mi Calm Calm - N/A   Clear
10:15 PM 55.4 °F 53.6 °F 94% 30.29 in 10.0 mi Calm Calm - N/A   Clear
10:35 PM 55.4 °F 53.6 °F 94% 30.29 in 10.0 mi Calm Calm - N/A   Clear
10:55 PM 53.6 °F 51.8 °F 94% 30.29 in 10.0 mi Calm Calm - N/A   Clear
11:15 PM 53.6 °F 51.8 °F 94% 30.29 in 10.0 mi Calm Calm - N/A   Clear
11:35 PM 53.6 °F 51.8 °F 94% 30.29 in 10.0 mi Calm Calm - N/A   Clear
11:55 PM 53.6 °F 51.8 °F 94% 30.29 in 10.0 mi Calm Calm - N/A   Clear